Wind From: 11-12-2017 12:03 Until: 12-12-2017 06:00 warning for: Wind Level: Orange info button

Power and phone distribution networks may be disrupted for relatively long periods., Roofs and chimneys can be damaged. , Tree branches may break. , Vehicles can be deported. , Traffic may be disrupted, particularly on secondary roads in forest areas. Limit your trips. , Limit your speed in highway driving, especially if you drive a vehicle or hitch sensitive to wind. , Do not go for walks in forests or along the coast., In town, be vigilant against possible falling objects., Do not work on roofs and do not touch any electrical line fallen on the ground., Store or secure sensitive objects to wind or likely to be damaged., Always install power generators outside buildings. 


Meteo18 Weather Cam more information Meteo18 Weather Cam


Thunder radar more information blitzortung!


Rain radar more information rain snow radar


Visit our other weather sites:

Template documentation
and downloads

And another site



Weather Underground History page Text

Daily Summary for January 8, 2017 Units:  Metric    English   Both
« Previous Day
Next Day »
Daily Weekly Monthly Yearly Custom
  High: Low: Average:
Temperature: 4.4 °C -0.2 °C 1.3 °C
Dew Point: 3.7 °C -0.9 °C 0.9 °C
Humidity: 98 % 95 % 97 %
Wind Speed: 4.8 km/h 0.0 km/h 0.2 km/h
Wind Gust: 8.0 km/h - -
Wind:- - SW
Pressure: 1034.1 hPa 1032.1 hPa -
Precipitation: 0.5 mm    
Historical Graphs
 
 
Tabular Data for January 8, 2017
Time Temperature Dew Point Pressure Wind Wind Speed Wind Gust Humidity Rainfall Rate (Hourly)
00:02 -0.2 °C -0.9 °C 1034.1 hPa West 1.6 km/h 4.8 km/h 95 % 0.0 mm
00:12 -0.2 °C -0.9 °C 1033.7 hPa WSW 1.6 km/h 6.4 km/h 95 % 0.0 mm
00:17 -0.2 °C -0.9 °C 1033.7 hPa SW 1.6 km/h 4.8 km/h 95 % 0.0 mm
00:22 -0.2 °C -0.9 °C 1033.7 hPa WSW 1.6 km/h 4.8 km/h 95 % 0.0 mm
00:27 -0.2 °C -0.9 °C 1033.7 hPa SW 1.6 km/h 4.8 km/h 95 % 0.0 mm
00:37 -0.2 °C -0.9 °C 1033.7 hPa SSW 1.6 km/h 4.8 km/h 95 % 0.0 mm
00:42 -0.1 °C -0.8 °C 1033.7 hPa Calm   4.8 km/h 95 % 0.0 mm
00:47 -0.2 °C -0.9 °C 1033.7 hPa SSW 1.6 km/h 4.8 km/h 95 % 0.0 mm
00:52 -0.2 °C -0.9 °C 1033.7 hPa Calm   3.2 km/h 95 % 0.0 mm
00:57 -0.2 °C -0.9 °C 1033.7 hPa Calm   3.2 km/h 95 % 0.0 mm
01:02 -0.2 °C -0.8 °C 1033.4 hPa Calm   3.2 km/h 96 % 0.0 mm
01:07 -0.2 °C -0.8 °C 1033.7 hPa Calm     96 % 0.0 mm
01:12 -0.2 °C -0.8 °C 1033.4 hPa Calm     96 % 0.0 mm
01:17 -0.2 °C -0.8 °C 1033.4 hPa Calm     96 % 0.0 mm
01:22 -0.2 °C -0.8 °C 1033.4 hPa Calm     96 % 0.0 mm
01:27 -0.2 °C -0.8 °C 1033.4 hPa Calm     96 % 0.0 mm
01:32 -0.2 °C -0.8 °C 1033.1 hPa Calm     96 % 0.0 mm
01:37 -0.2 °C -0.8 °C 1033.4 hPa Calm     96 % 0.0 mm
01:42 -0.2 °C -0.8 °C 1033.1 hPa Calm     96 % 0.0 mm
01:47 -0.2 °C -0.8 °C 1033.1 hPa Calm     96 % 0.0 mm
01:52 -0.2 °C -0.8 °C 1033.1 hPa Calm     96 % 0.0 mm
01:57 -0.2 °C -0.8 °C 1033.1 hPa Calm     96 % 0.0 mm
02:02 -0.2 °C -0.8 °C 1033.1 hPa Calm     96 % 0.0 mm
02:07 -0.2 °C -0.8 °C 1033.1 hPa Calm     96 % 0.0 mm
02:12 -0.1 °C -0.7 °C 1033.1 hPa Calm     96 % 0.0 mm
02:17 -0.1 °C -0.7 °C 1033.1 hPa Calm     96 % 0.0 mm
02:22 -0.1 °C -0.5 °C 1033.1 hPa Calm     97 % 0.0 mm
02:27 0.0 °C -0.4 °C 1033.1 hPa Calm     97 % 0.0 mm
02:32 0.1 °C -0.3 °C 1032.7 hPa Calm     97 % 0.0 mm
02:37 0.1 °C -0.3 °C 1032.7 hPa Calm     97 % 0.0 mm
02:42 0.1 °C -0.3 °C 1032.7 hPa Calm     97 % 0.0 mm
02:47 0.1 °C -0.3 °C 1032.7 hPa Calm     97 % 0.0 mm
02:52 0.1 °C -0.3 °C 1032.7 hPa Calm     97 % 0.0 mm
02:57 0.2 °C -0.2 °C 1033.1 hPa Calm     97 % 0.0 mm
03:02 0.2 °C -0.2 °C 1033.1 hPa Calm     97 % 0.0 mm
03:07 0.2 °C -0.2 °C 1033.1 hPa Calm     97 % 0.0 mm
03:12 0.2 °C -0.2 °C 1032.7 hPa Calm     97 % 0.0 mm
03:17 0.2 °C -0.2 °C 1032.7 hPa Calm     97 % 0.0 mm
03:22 0.2 °C -0.2 °C 1032.7 hPa Calm     97 % 0.0 mm
03:32 0.2 °C -0.2 °C 1032.7 hPa Calm     97 % 0.0 mm
03:42 0.1 °C -0.3 °C 1032.7 hPa Calm     97 % 0.0 mm
03:47 0.1 °C -0.3 °C 1032.7 hPa Calm     97 % 0.0 mm
03:52 0.2 °C -0.2 °C 1032.7 hPa Calm     97 % 0.0 mm
03:57 0.2 °C -0.2 °C 1032.7 hPa Calm     97 % 0.0 mm
04:02 0.2 °C -0.2 °C 1032.7 hPa Calm     97 % 0.0 mm
04:07 0.1 °C -0.3 °C 1032.7 hPa Calm     97 % 0.0 mm
04:12 0.2 °C -0.2 °C 1032.7 hPa Calm     97 % 0.0 mm
04:17 0.2 °C -0.2 °C 1033.1 hPa Calm     97 % 0.0 mm
04:22 0.1 °C -0.3 °C 1033.1 hPa Calm     97 % 0.0 mm
04:27 0.1 °C -0.3 °C 1032.7 hPa Calm     97 % 0.0 mm
04:32 0.1 °C -0.3 °C 1033.1 hPa Calm     97 % 0.0 mm
04:37 0.1 °C -0.3 °C 1033.1 hPa Calm     97 % 0.0 mm
04:42 0.1 °C -0.3 °C 1033.1 hPa Calm     97 % 0.0 mm
04:47 0.0 °C -0.4 °C 1032.7 hPa Calm     97 % 0.0 mm
04:52 0.0 °C -0.4 °C 1032.7 hPa Calm     97 % 0.0 mm
04:57 0.0 °C -0.4 °C 1032.7 hPa Calm     97 % 0.0 mm
05:02 0.0 °C -0.4 °C 1032.7 hPa Calm     97 % 0.0 mm
05:12 0.0 °C -0.4 °C 1032.7 hPa Calm     97 % 0.0 mm
05:17 0.0 °C -0.4 °C 1032.7 hPa Calm     97 % 0.0 mm
05:22 0.0 °C -0.4 °C 1032.7 hPa Calm     97 % 0.0 mm
05:27 0.0 °C -0.4 °C 1032.7 hPa Calm     97 % 0.0 mm
05:32 0.0 °C -0.4 °C 1032.7 hPa Calm     97 % 0.0 mm
05:37 0.0 °C -0.4 °C 1032.7 hPa Calm     97 % 0.0 mm
05:42 0.1 °C -0.3 °C 1032.7 hPa Calm     97 % 0.0 mm
05:47 0.0 °C -0.4 °C 1032.7 hPa Calm     97 % 0.0 mm
05:52 0.1 °C -0.3 °C 1032.7 hPa Calm     97 % 0.0 mm
05:57 0.1 °C -0.3 °C 1032.7 hPa Calm     97 % 0.0 mm
06:02 0.1 °C -0.3 °C 1032.7 hPa Calm     97 % 0.0 mm
06:07 0.1 °C -0.3 °C 1032.7 hPa Calm     97 % 0.0 mm
06:12 0.1 °C -0.3 °C 1032.4 hPa Calm     97 % 0.0 mm
06:17 0.1 °C -0.3 °C 1032.4 hPa Calm     97 % 0.0 mm
06:22 0.2 °C -0.2 °C 1032.4 hPa Calm     97 % 0.0 mm
06:27 0.3 °C -0.1 °C 1032.4 hPa Calm     97 % 0.0 mm
06:32 0.3 °C -0.1 °C 1032.4 hPa Calm     97 % 0.0 mm
06:37 0.3 °C -0.1 °C 1032.4 hPa Calm     97 % 0.0 mm
06:42 0.3 °C -0.1 °C 1032.4 hPa Calm     97 % 0.0 mm
06:47 0.3 °C -0.1 °C 1032.4 hPa Calm     97 % 0.0 mm
06:52 0.3 °C -0.1 °C 1032.4 hPa Calm     97 % 0.0 mm
06:57 0.3 °C -0.1 °C 1032.4 hPa Calm     97 % 0.0 mm
07:02 0.3 °C -0.1 °C 1032.4 hPa Calm     97 % 0.0 mm
07:07 0.3 °C -0.1 °C 1032.4 hPa Calm     97 % 0.0 mm
07:12 0.3 °C -0.1 °C 1032.1 hPa Calm     97 % 0.0 mm
07:17 0.4 °C 0.0 °C 1032.4 hPa Calm     97 % 0.0 mm
07:22 0.4 °C 0.0 °C 1032.4 hPa Calm     97 % 0.0 mm
07:27 0.2 °C -0.2 °C 1032.7 hPa Calm     97 % 0.0 mm
07:32 0.2 °C -0.2 °C 1032.7 hPa Calm     97 % 0.0 mm
07:37 0.2 °C -0.2 °C 1032.7 hPa Calm     97 % 0.0 mm
07:42 0.2 °C -0.2 °C 1032.7 hPa Calm     97 % 0.0 mm
07:47 0.2 °C -0.2 °C 1032.7 hPa Calm     97 % 0.0 mm
07:52 0.2 °C -0.2 °C 1032.7 hPa Calm     97 % 0.0 mm
07:57 0.2 °C -0.2 °C 1032.7 hPa Calm     97 % 0.0 mm
08:02 0.2 °C -0.2 °C 1032.7 hPa Calm     97 % 0.0 mm
08:12 0.2 °C -0.2 °C 1032.7 hPa Calm     97 % 0.0 mm
08:17 0.2 °C -0.2 °C 1032.7 hPa Calm     97 % 0.0 mm
08:22 0.2 °C -0.2 °C 1032.7 hPa Calm     97 % 0.0 mm
08:27 0.2 °C -0.2 °C 1033.1 hPa Calm     97 % 0.0 mm
08:32 0.2 °C -0.2 °C 1032.7 hPa Calm   4.8 km/h 97 % 0.0 mm
08:37 0.2 °C -0.2 °C 1033.1 hPa Calm   4.8 km/h 97 % 0.0 mm
08:42 0.2 °C -0.2 °C 1033.1 hPa Calm   1.6 km/h 97 % 0.0 mm
08:47 0.2 °C -0.2 °C 1033.1 hPa Calm   1.6 km/h 97 % 0.0 mm
08:52 0.2 °C -0.2 °C 1033.1 hPa Calm     97 % 0.0 mm
08:57 0.2 °C -0.2 °C 1033.4 hPa Calm     97 % 0.0 mm
09:02 0.2 °C -0.2 °C 1033.4 hPa Calm     97 % 0.0 mm
09:07 0.2 °C -0.2 °C 1033.4 hPa Calm     97 % 0.0 mm
09:12 0.2 °C -0.2 °C 1033.4 hPa Calm     97 % 0.0 mm
09:17 0.2 °C -0.2 °C 1033.4 hPa Calm     97 % 0.0 mm
09:22 0.2 °C -0.2 °C 1033.4 hPa Calm     97 % 0.0 mm
09:27 0.2 °C -0.2 °C 1033.4 hPa Calm     97 % 0.0 mm
09:32 0.3 °C -0.1 °C 1033.7 hPa Calm     97 % 0.0 mm
09:37 0.3 °C -0.1 °C 1033.7 hPa Calm     97 % 0.0 mm
09:47 0.3 °C -0.1 °C 1033.7 hPa Calm     97 % 0.0 mm
09:52 0.4 °C 0.0 °C 1033.7 hPa Calm     97 % 0.0 mm
09:57 0.4 °C 0.1 °C 1033.7 hPa Calm     98 % 0.0 mm
10:02 0.4 °C 0.1 °C 1033.7 hPa Calm     98 % 0.0 mm
10:07 0.4 °C 0.1 °C 1033.7 hPa Calm     98 % 0.0 mm
10:12 0.4 °C 0.1 °C 1033.7 hPa Calm     98 % 0.0 mm
10:17 0.5 °C 0.1 °C 1033.7 hPa Calm     97 % 0.0 mm
10:22 0.5 °C 0.2 °C 1033.7 hPa Calm     98 % 0.0 mm
10:27 0.5 °C 0.1 °C 1033.7 hPa Calm     97 % 0.0 mm
10:37 0.6 °C 0.3 °C 1033.7 hPa Calm     98 % 0.0 mm
10:42 0.7 °C 0.4 °C 1033.7 hPa Calm     98 % 0.0 mm
10:47 0.6 °C 0.3 °C 1033.7 hPa Calm     98 % 0.0 mm
10:52 0.7 °C 0.4 °C 1033.7 hPa Calm     98 % 0.0 mm
10:57 0.7 °C 0.4 °C 1033.7 hPa Calm     98 % 0.0 mm
11:02 0.7 °C 0.3 °C 1033.7 hPa Calm     97 % 0.0 mm
11:07 0.7 °C 0.3 °C 1033.7 hPa Calm     97 % 0.0 mm
11:17 0.8 °C 0.4 °C 1033.7 hPa Calm     97 % 0.0 mm
11:22 0.8 °C 0.4 °C 1034.1 hPa Calm     97 % 0.0 mm
11:32 0.9 °C 0.6 °C 1033.7 hPa Calm     98 % 0.0 mm
11:37 1.0 °C 0.7 °C 1033.7 hPa Calm     98 % 0.0 mm
11:42 1.1 °C 0.8 °C 1033.7 hPa Calm     98 % 0.0 mm
11:52 1.3 °C 1.0 °C 1033.7 hPa Calm     98 % 0.0 mm
11:57 1.4 °C 1.1 °C 1033.7 hPa Calm     98 % 0.0 mm
12:07 1.9 °C 1.6 °C 1033.7 hPa Calm     98 % 0.0 mm
12:12 2.2 °C 1.9 °C 1033.7 hPa Calm   1.6 km/h 98 % 0.0 mm
12:22 2.7 °C 2.4 °C 1033.4 hPa WNW 3.2 km/h 6.4 km/h 98 % 0.0 mm
12:32 3.1 °C 2.8 °C 1033.7 hPa NNW 1.6 km/h 6.4 km/h 98 % 0.0 mm
12:42 3.1 °C 2.8 °C 1033.4 hPa WNW 3.2 km/h 8.0 km/h 98 % 0.0 mm
12:47 3.2 °C 2.9 °C 1033.4 hPa Calm   8.0 km/h 98 % 0.0 mm
12:52 3.2 °C 2.9 °C 1033.4 hPa Calm   6.4 km/h 98 % 0.0 mm
12:57 3.2 °C 2.9 °C 1033.4 hPa Calm   6.4 km/h 98 % 0.0 mm
13:02 3.4 °C 3.1 °C 1033.4 hPa Calm   6.4 km/h 98 % 0.0 mm
13:07 3.6 °C 3.3 °C 1033.4 hPa Calm   3.2 km/h 98 % 0.0 mm
13:17 3.5 °C 3.1 °C 1033.1 hPa SSW 1.6 km/h 1.6 km/h 97 % 0.0 mm
13:22 3.6 °C 3.2 °C 1033.1 hPa SSW 1.6 km/h 4.8 km/h 97 % 0.0 mm
13:27 3.6 °C 3.2 °C 1033.1 hPa WSW 1.6 km/h 4.8 km/h 97 % 0.0 mm
13:32 3.6 °C 3.2 °C 1033.1 hPa West 1.6 km/h 3.2 km/h 97 % 0.3 mm
13:42 3.8 °C 3.2 °C 1032.7 hPa WNW 1.6 km/h 3.2 km/h 96 % 0.3 mm
13:52 4.1 °C 3.5 °C 1033.1 hPa Calm   4.8 km/h 96 % 0.3 mm
13:57 4.2 °C 3.6 °C 1033.1 hPa Calm   3.2 km/h 96 % 0.3 mm
14:07 4.4 °C 3.7 °C 1033.1 hPa Calm   1.6 km/h 95 % 0.3 mm
14:12 4.3 °C 3.6 °C 1033.1 hPa Calm   1.6 km/h 95 % 0.3 mm
14:17 4.4 °C 3.7 °C 1033.1 hPa East 1.6 km/h 1.6 km/h 95 % 0.3 mm
15:27 4.3 °C 3.6 °C 1033.1 hPa SW 1.6 km/h 3.2 km/h 95 % 0.0 mm
15:37 4.2 °C 3.5 °C 1033.1 hPa SSW 1.6 km/h 3.2 km/h 95 % 0.0 mm
15:47 4.1 °C 3.4 °C 1033.1 hPa Calm   3.2 km/h 95 % 0.0 mm
15:57 3.9 °C 3.3 °C 1033.1 hPa Calm   1.6 km/h 96 % 0.0 mm
16:02 3.9 °C 3.3 °C 1033.4 hPa Calm     96 % 0.0 mm
16:12 3.9 °C 3.3 °C 1033.1 hPa Calm     96 % 0.0 mm
16:17 3.8 °C 3.2 °C 1033.1 hPa Calm     96 % 0.0 mm
16:22 3.8 °C 3.2 °C 1033.4 hPa Calm     96 % 0.0 mm
16:27 3.8 °C 3.2 °C 1033.1 hPa Calm     96 % 0.0 mm
16:32 3.7 °C 3.1 °C 1033.1 hPa Calm     96 % 0.0 mm
16:37 3.7 °C 3.1 °C 1033.1 hPa Calm     96 % 0.0 mm
16:42 3.7 °C 3.1 °C 1033.1 hPa Calm     96 % 0.0 mm
16:52 3.7 °C 3.1 °C 1033.1 hPa Calm     96 % 0.0 mm
17:02 3.6 °C 3.0 °C 1033.4 hPa Calm     96 % 0.0 mm
17:07 3.6 °C 3.2 °C 1033.4 hPa Calm     97 % 0.0 mm
17:12 3.6 °C 3.2 °C 1033.4 hPa Calm     97 % 0.0 mm
17:22 3.3 °C 2.7 °C 1033.4 hPa East 1.6 km/h 3.2 km/h 96 % 0.0 mm
17:32 3.2 °C 2.8 °C 1033.4 hPa Calm   3.2 km/h 97 % 0.0 mm
17:37 3.1 °C 2.7 °C 1033.4 hPa Calm   3.2 km/h 97 % 0.0 mm
17:42 3.1 °C 2.7 °C 1033.4 hPa Calm   1.6 km/h 97 % 0.0 mm
17:47 3.1 °C 2.7 °C 1033.4 hPa Calm     97 % 0.0 mm
17:52 3.1 °C 2.7 °C 1033.4 hPa Calm     97 % 0.0 mm
17:57 3.0 °C 2.6 °C 1033.4 hPa Calm     97 % 0.0 mm
18:02 3.0 °C 2.6 °C 1033.4 hPa Calm     97 % 0.0 mm
18:12 2.9 °C 2.5 °C 1033.7 hPa Calm     97 % 0.0 mm
18:17 2.8 °C 2.4 °C 1033.7 hPa Calm   3.2 km/h 97 % 0.0 mm
18:27 2.7 °C 2.3 °C 1033.7 hPa Calm     97 % 0.0 mm
18:37 2.8 °C 2.4 °C 1033.4 hPa Calm     97 % 0.0 mm
18:42 2.8 °C 2.4 °C 1033.4 hPa Calm     97 % 0.0 mm
18:52 2.8 °C 2.4 °C 1033.4 hPa Calm     97 % 0.0 mm
18:57 2.8 °C 2.4 °C 1033.4 hPa Calm     97 % 0.0 mm
19:02 2.7 °C 2.3 °C 1033.4 hPa Calm     97 % 0.0 mm
19:07 2.6 °C 2.2 °C 1033.4 hPa Calm     97 % 0.0 mm
19:17 2.7 °C 2.3 °C 1033.4 hPa Calm     97 % 0.0 mm
19:22 2.7 °C 2.3 °C 1033.4 hPa Calm     97 % 0.0 mm
19:27 2.6 °C 2.2 °C 1033.4 hPa Calm     97 % 0.0 mm
19:37 2.6 °C 2.2 °C 1033.4 hPa Calm     97 % 0.0 mm
19:42 2.6 °C 2.2 °C 1033.4 hPa Calm     97 % 0.0 mm
19:47 2.6 °C 2.2 °C 1033.4 hPa Calm     97 % 0.0 mm
19:52 2.6 °C 2.2 °C 1033.4 hPa Calm     97 % 0.0 mm
20:02 2.5 °C 2.1 °C 1033.4 hPa Calm     97 % 0.0 mm
20:07 2.5 °C 2.1 °C 1033.1 hPa Calm     97 % 0.0 mm
20:17 2.4 °C 2.0 °C 1033.1 hPa Calm     97 % 0.0 mm
20:27 2.4 °C 2.0 °C 1033.1 hPa Calm     97 % 0.0 mm
20:32 2.4 °C 2.1 °C 1033.1 hPa Calm     98 % 0.0 mm
20:37 2.3 °C 2.0 °C 1033.1 hPa Calm     98 % 0.0 mm
20:42 2.3 °C 2.0 °C 1033.1 hPa Calm     98 % 0.0 mm
20:47 2.3 °C 2.0 °C 1033.4 hPa Calm     98 % 0.0 mm
20:52 2.2 °C 1.8 °C 1033.4 hPa Calm     97 % 0.0 mm
20:57 2.2 °C 1.8 °C 1033.1 hPa Calm     97 % 0.0 mm
21:02 2.1 °C 1.7 °C 1033.4 hPa Calm     97 % 0.0 mm
21:07 2.1 °C 1.7 °C 1033.4 hPa Calm   1.6 km/h 97 % 0.0 mm
21:17 2.2 °C 1.9 °C 1033.4 hPa WNW 1.6 km/h 1.6 km/h 98 % 0.3 mm
21:22 2.1 °C 1.8 °C 1033.1 hPa West 1.6 km/h 3.2 km/h 98 % 0.5 mm
21:27 2.2 °C 1.9 °C 1033.1 hPa Calm   3.2 km/h 98 % 0.5 mm
21:32 2.2 °C 1.9 °C 1033.1 hPa West 4.8 km/h 4.8 km/h 98 % 0.5 mm
21:42 2.1 °C 1.8 °C 1033.1 hPa Calm   6.4 km/h 98 % 0.5 mm
21:47 2.2 °C 1.9 °C 1033.1 hPa ESE 3.2 km/h 6.4 km/h 98 % 0.5 mm
21:52 2.2 °C 1.9 °C 1033.1 hPa Calm   6.4 km/h 98 % 0.5 mm
21:57 2.2 °C 1.9 °C 1033.1 hPa Calm   6.4 km/h 98 % 0.5 mm
22:02 2.2 °C 1.9 °C 1033.1 hPa Calm   6.4 km/h 98 % 0.5 mm
22:07 2.2 °C 1.9 °C 1033.1 hPa Calm   1.6 km/h 98 % 0.5 mm
22:12 2.2 °C 1.9 °C 1033.1 hPa East 1.6 km/h   98 % 0.3 mm
22:17 2.1 °C 1.8 °C 1033.1 hPa East 1.6 km/h 4.8 km/h 98 % 0.0 mm
22:27 2.0 °C 1.7 °C 1033.1 hPa Calm   4.8 km/h 98 % 0.0 mm
22:32 1.9 °C 1.6 °C 1033.1 hPa Calm   1.6 km/h 98 % 0.0 mm
22:37 1.9 °C 1.6 °C 1033.1 hPa Calm   1.6 km/h 98 % 0.0 mm
22:47 1.9 °C 1.6 °C 1033.1 hPa Calm     98 % 0.0 mm
22:52 1.9 °C 1.6 °C 1033.1 hPa Calm   1.6 km/h 98 % 0.0 mm
22:57 1.9 °C 1.6 °C 1033.4 hPa Calm   1.6 km/h 98 % 0.0 mm
23:02 1.9 °C 1.6 °C 1033.1 hPa Calm   1.6 km/h 98 % 0.0 mm
23:07 2.0 °C 1.7 °C 1033.1 hPa Calm   1.6 km/h 98 % 0.0 mm
23:12 2.1 °C 1.8 °C 1033.1 hPa Calm     98 % 0.0 mm
23:22 2.0 °C 1.7 °C 1033.1 hPa Calm   1.6 km/h 98 % 0.0 mm
23:27 1.9 °C 1.6 °C 1033.1 hPa Calm     98 % 0.0 mm
23:32 2.0 °C 1.7 °C 1033.1 hPa Calm   1.6 km/h 98 % 0.0 mm
23:42 2.0 °C 1.7 °C 1033.1 hPa Calm   1.6 km/h 98 % 0.0 mm
23:47 2.0 °C 1.7 °C 1032.7 hPa Calm   1.6 km/h 98 % 0.0 mm
23:52 2.1 °C 1.8 °C 1032.7 hPa Calm   1.6 km/h 98 % 0.0 mm
Meteo18
Compliments of Weather Underground - 4 mb

Script developed by  Jim McMurry - jmcmurry@mwt.net Adapted for the template by  Wim van der Kuil - Leuven-Template.eu

You find our weather info also at:

European Weather Network

Weather Underground

Equipment we use:

Weather-station
Davis Vue

Weather-program
Meteohub

Weather-server
Raspberry PI 2 B+

Provider
1 and 1

Davis Vue

Meteohub

Raspberry PI 2 B+

1 and 1